This is the latest recevied weather packets stored in our database for station/object DC4THF-13. If no packets are shown the sender has not sent any weather packets the latest 10 day(s).
| Time | Temp. | Humidity | Pressure | Rain* | Wind** | Luminosity | Snow |
|---|---|---|---|---|---|---|---|
| 1787472147 | 16.67° C | 66% | 1015 hPa | 0 mm | - | - | - |
| 1787471540 | 16.11° C | 68% | 1015 hPa | 0 mm | - | - | - |
| 1787470937 | 16.11° C | 69% | 1015 hPa | 0 mm | - | - | - |
| 1787470333 | 16.11° C | 70% | 1014.9 hPa | 0 mm | - | - | - |
| 1787469786 | 15.56° C | 70% | 1014.8 hPa | 0 mm | - | - | - |
| 1787469183 | 15.56° C | 70% | 1014.8 hPa | 0 mm | - | - | - |
| 1787468575 | 15° C | 71% | 1014.9 hPa | 0 mm | - | - | - |
| 1787467972 | 15° C | 71% | 1014.9 hPa | 0 mm | - | - | - |
| 1787467363 | 15° C | 72% | 1014.8 hPa | 0 mm | - | - | - |
| 1787466760 | 14.44° C | 73% | 1014.8 hPa | 0 mm | - | - | - |
| 1787466158 | 14.44° C | 73% | 1014.8 hPa | 0 mm | - | - | - |
| 1787465549 | 13.89° C | 74% | 1015 hPa | 0 mm | - | - | - |
| 1787464946 | 13.89° C | 75% | 1014.8 hPa | 0 mm | - | - | - |
| 1787464339 | 13.89° C | 76% | 1014.8 hPa | 0 mm | - | - | - |
| 1787463735 | 13.33° C | 76% | 1014.6 hPa | 0 mm | - | - | - |
| 1787463187 | 13.33° C | 76% | 1014.6 hPa | 0 mm | - | - | - |
| 1787462585 | 13.33° C | 77% | 1014.6 hPa | 0 mm | - | - | - |
| 1787461982 | 12.78° C | 77% | 1014.5 hPa | 0 mm | - | - | - |
| 1787461373 | 12.78° C | 78% | 1014.4 hPa | 0 mm | - | - | - |
| 1787460770 | 12.78° C | 78% | 1014.3 hPa | 0 mm | - | - | - |
| 1787460162 | 12.78° C | 79% | 1014.2 hPa | 0 mm | - | - | - |
| 1787459559 | 12.78° C | 80% | 1014.2 hPa | 0 mm | - | - | - |
| 1787458951 | 12.22° C | 82% | 1014.2 hPa | 0 mm | - | - | - |
| 1787458348 | 12.22° C | 83% | 1014.1 hPa | 0 mm | - | - | - |
| 1787457745 | 12.22° C | 84% | 1013.9 hPa | 0 mm | - | - | - |
* Rain latest hour (hover to see other rain measurements)
** Current wind speed in m/s (hover to see current wind gust speed)